Time,TemperatureF,DewpointF,PressureIn,WindDirection,WindDirectionDegrees,WindSpeedMPH,WindSpeedGustMPH,Humidity,HourlyPrecipIn,Conditions,Clouds,dailyrainin,SoftwareType,DateUTC
2013-01-20 00:02:00,34.2,31.3,30.22,SSW,205,0.0,0.0,89,0.00,,,0.00,meteohub,2013-01-20 05:02:00,
2013-01-20 00:03:00,34.2,31.3,30.22,SSW,205,0.0,0.0,89,0.00,,,0.00,meteohub,2013-01-20 05:03:00,
2013-01-20 00:04:00,34.2,31.3,30.22,SSW,205,0.0,0.0,89,0.00,,,0.00,meteohub,2013-01-20 05:04:00,
2013-01-20 00:09:00,34.0,31.1,30.22,SSW,205,0.0,0.0,89,0.00,,,0.00,meteohub,2013-01-20 05:09:00,
2013-01-20 00:14:00,33.6,30.4,30.22,SSW,205,0.0,0.0,88,0.00,,,0.00,meteohub,2013-01-20 05:14:00,
2013-01-20 00:19:00,33.4,30.2,30.22,SSW,205,0.0,0.0,88,0.00,,,0.00,meteohub,2013-01-20 05:19:00,
2013-01-20 00:24:00,33.4,30.2,30.22,SSW,206,0.0,0.0,88,0.00,,,0.00,meteohub,2013-01-20 05:24:00,
2013-01-20 00:29:00,33.3,30.0,30.22,SSW,205,0.0,0.0,88,0.00,,,0.00,meteohub,2013-01-20 05:29:00,
2013-01-20 00:34:00,33.3,30.0,30.21,SSW,205,0.0,0.0,88,0.00,,,0.00,meteohub,2013-01-20 05:34:00,
2013-01-20 00:39:00,33.3,30.0,30.21,SSW,205,0.0,0.0,88,0.00,,,0.00,meteohub,2013-01-20 05:39:00,
2013-01-20 00:44:00,33.1,29.7,30.22,SSW,205,0.0,0.0,87,0.00,,,0.00,meteohub,2013-01-20 05:44:00,
2013-01-20 00:49:00,33.1,29.7,30.22,SSW,206,0.0,0.0,87,0.00,,,0.00,meteohub,2013-01-20 05:49:00,
2013-01-20 00:54:00,33.1,29.7,30.22,SSW,205,0.0,0.0,87,0.00,,,0.00,meteohub,2013-01-20 05:54:00,
2013-01-20 00:59:00,33.1,29.7,30.22,SSW,206,0.0,0.0,87,0.00,,,0.00,meteohub,2013-01-20 05:59:00,
2013-01-20 01:04:00,33.1,29.7,30.21,SSW,205,0.0,0.0,87,0.00,,,0.00,meteohub,2013-01-20 06:04:00,
2013-01-20 01:09:00,32.9,29.5,30.21,SSW,205,0.0,0.0,87,0.00,,,0.00,meteohub,2013-01-20 06:09:00,
2013-01-20 01:14:00,32.9,29.5,30.21,SSW,205,0.0,0.0,87,0.00,,,0.00,meteohub,2013-01-20 06:14:00,
2013-01-20 01:19:00,32.9,29.7,30.21,SSW,205,0.0,0.0,88,0.00,,,0.00,meteohub,2013-01-20 06:19:00,
2013-01-20 01:24:00,32.7,29.5,30.21,SSW,205,0.0,0.0,88,0.00,,,0.00,meteohub,2013-01-20 06:24:00,
2013-01-20 01:29:00,32.7,29.3,30.21,SSW,205,0.0,0.0,87,0.00,,,0.00,meteohub,2013-01-20 06:29:00,
2013-01-20 01:34:00,32.5,29.3,30.21,SSW,205,0.0,0.0,88,0.00,,,0.00,meteohub,2013-01-20 06:34:00,
2013-01-20 01:39:00,32.5,29.3,30.21,SSW,205,0.0,0.0,88,0.00,,,0.00,meteohub,2013-01-20 06:39:00,
2013-01-20 01:44:00,32.4,29.1,30.21,SSW,205,0.0,0.0,88,0.00,,,0.00,meteohub,2013-01-20 06:44:00,
2013-01-20 01:49:00,32.4,29.1,30.21,SSW,205,0.0,0.0,88,0.00,,,0.00,meteohub,2013-01-20 06:49:00,
2013-01-20 01:54:00,32.2,29.3,30.21,SSW,205,0.0,0.0,89,0.00,,,0.00,meteohub,2013-01-20 06:54:00,
2013-01-20 01:59:00,32.2,29.3,30.21,SSW,205,0.0,0.0,89,0.00,,,0.00,meteohub,2013-01-20 06:59:00,
2013-01-20 02:04:00,32.2,29.3,30.21,SSW,205,0.0,0.0,89,0.00,,,0.00,meteohub,2013-01-20 07:04:00,
2013-01-20 02:10:00,32.2,29.3,30.21,SSW,205,0.0,0.0,89,0.00,,,0.00,meteohub,2013-01-20 07:10:00,
2013-01-20 02:15:00,32.2,29.3,30.20,SSW,205,0.0,0.0,89,0.00,,,0.00,meteohub,2013-01-20 07:15:00,
2013-01-20 02:20:00,32.2,29.3,30.21,SSW,205,0.0,0.0,89,0.00,,,0.00,meteohub,2013-01-20 07:20:00,
2013-01-20 02:25:00,32.2,29.3,30.20,SSW,205,0.0,0.0,89,0.00,,,0.00,meteohub,2013-01-20 07:25:00,
2013-01-20 02:30:00,32.0,29.1,30.21,SSW,206,0.0,0.0,89,0.00,,,0.00,meteohub,2013-01-20 07:30:00,
2013-01-20 02:35:00,32.2,29.3,30.21,SSW,206,0.0,0.0,89,0.00,,,0.00,meteohub,2013-01-20 07:35:00,
2013-01-20 02:40:00,32.7,29.5,30.21,SSW,206,0.0,0.0,88,0.00,,,0.00,meteohub,2013-01-20 07:40:00,
2013-01-20 02:45:00,33.3,29.5,30.21,SSW,200,0.0,0.0,86,0.00,,,0.00,meteohub,2013-01-20 07:45:00,
2013-01-20 02:50:00,34.0,30.0,30.20,SSW,201,0.0,0.0,85,0.00,,,0.00,meteohub,2013-01-20 07:50:00,
2013-01-20 02:55:00,34.0,30.0,30.20,SSW,200,0.0,1.0,85,0.00,,,0.00,meteohub,2013-01-20 07:55:00,
2013-01-20 03:00:00,33.8,29.8,30.20,SSW,200,0.0,1.0,85,0.00,,,0.00,meteohub,2013-01-20 08:00:00,
2013-01-20 03:05:00,33.4,29.5,30.20,SSW,201,0.0,0.0,85,0.00,,,0.00,meteohub,2013-01-20 08:05:00,
2013-01-20 03:10:00,33.3,29.5,30.20,SSW,200,0.0,0.0,86,0.00,,,0.00,meteohub,2013-01-20 08:10:00,
2013-01-20 03:15:00,33.3,29.5,30.20,SSW,200,0.0,0.0,86,0.00,,,0.00,meteohub,2013-01-20 08:15:00,
2013-01-20 03:20:00,33.3,29.3,30.20,SSW,200,0.0,0.0,85,0.00,,,0.00,meteohub,2013-01-20 08:20:00,
2013-01-20 03:25:00,33.6,29.3,30.20,NW,324,0.0,0.0,84,0.00,,,0.00,meteohub,2013-01-20 08:25:00,
2013-01-20 03:30:00,34.5,29.7,30.20,NW,325,0.0,1.0,82,0.00,,,0.00,meteohub,2013-01-20 08:30:00,
2013-01-20 03:35:00,35.4,29.5,30.19,SW,235,0.0,1.0,79,0.00,,,0.00,meteohub,2013-01-20 08:35:00,
2013-01-20 03:40:00,36.1,30.0,30.19,SW,232,0.0,1.0,78,0.00,,,0.00,meteohub,2013-01-20 08:40:00,
2013-01-20 03:45:00,36.5,30.0,30.19,SW,232,0.0,1.0,77,0.00,,,0.00,meteohub,2013-01-20 08:45:00,
2013-01-20 03:50:00,36.3,29.5,30.19,SW,233,0.0,1.0,76,0.00,,,0.00,meteohub,2013-01-20 08:50:00,
2013-01-20 03:55:00,36.3,29.8,30.19,SW,233,0.0,1.0,77,0.00,,,0.00,meteohub,2013-01-20 08:55:00,
2013-01-20 04:00:00,36.1,29.7,30.19,SW,232,0.0,0.0,77,0.00,,,0.00,meteohub,2013-01-20 09:00:00,
2013-01-20 04:05:00,36.0,29.5,30.19,SW,232,0.0,0.0,77,0.00,,,0.00,meteohub,2013-01-20 09:05:00,
2013-01-20 04:10:00,35.4,29.3,30.18,SW,232,0.0,0.0,78,0.00,,,0.00,meteohub,2013-01-20 09:10:00,
2013-01-20 04:15:00,35.2,29.1,30.18,SW,233,0.0,0.0,78,0.00,,,0.00,meteohub,2013-01-20 09:15:00,
2013-01-20 04:20:00,35.1,29.1,30.18,SW,232,0.0,0.0,79,0.00,,,0.00,meteohub,2013-01-20 09:20:00,
2013-01-20 04:25:00,34.9,29.3,30.19,SW,233,0.0,0.0,80,0.00,,,0.00,meteohub,2013-01-20 09:25:00,
2013-01-20 04:30:00,34.5,28.9,30.18,SW,232,0.0,0.0,80,0.00,,,0.00,meteohub,2013-01-20 09:30:00,
2013-01-20 04:35:00,34.3,29.1,30.18,SW,233,0.0,1.0,81,0.00,,,0.00,meteohub,2013-01-20 09:35:00,
2013-01-20 04:40:00,34.2,28.9,30.18,SW,232,0.0,1.0,81,0.00,,,0.00,meteohub,2013-01-20 09:40:00,
2013-01-20 04:45:00,34.2,28.9,30.18,SW,232,0.0,0.0,81,0.00,,,0.00,meteohub,2013-01-20 09:45:00,
2013-01-20 04:50:00,34.3,29.1,30.18,SW,232,0.0,0.0,81,0.00,,,0.00,meteohub,2013-01-20 09:50:00,
2013-01-20 04:55:00,34.2,29.3,30.19,SW,232,0.0,0.0,82,0.00,,,0.00,meteohub,2013-01-20 09:55:00,
2013-01-20 05:00:00,34.0,29.1,30.18,SW,233,0.0,0.0,82,0.00,,,0.00,meteohub,2013-01-20 10:00:00,
2013-01-20 05:05:00,33.8,29.1,30.18,SW,232,0.0,0.0,83,0.00,,,0.00,meteohub,2013-01-20 10:05:00,
2013-01-20 05:11:00,33.6,28.9,30.18,SW,233,0.0,0.0,83,0.00,,,0.00,meteohub,2013-01-20 10:11:00,
2013-01-20 05:16:00,33.6,28.9,30.18,SW,233,0.0,0.0,83,0.00,,,0.00,meteohub,2013-01-20 10:16:00,
2013-01-20 05:21:00,33.4,29.1,30.18,SW,232,0.0,0.0,84,0.00,,,0.00,meteohub,2013-01-20 10:21:00,
2013-01-20 05:26:00,33.3,28.9,30.18,SW,232,0.0,0.0,84,0.00,,,0.00,meteohub,2013-01-20 10:26:00,
2013-01-20 05:31:00,33.1,29.1,30.18,SW,232,0.0,0.0,85,0.00,,,0.00,meteohub,2013-01-20 10:31:00,
2013-01-20 05:36:00,33.3,29.3,30.18,SW,232,0.0,0.0,85,0.00,,,0.00,meteohub,2013-01-20 10:36:00,
2013-01-20 05:41:00,33.3,29.3,30.18,SW,232,0.0,0.0,85,0.00,,,0.00,meteohub,2013-01-20 10:41:00,
2013-01-20 05:46:00,33.4,29.5,30.18,SW,232,0.0,0.0,85,0.00,,,0.00,meteohub,2013-01-20 10:46:00,
2013-01-20 05:51:00,33.6,29.3,30.18,SW,232,0.0,0.0,84,0.00,,,0.00,meteohub,2013-01-20 10:51:00,
2013-01-20 05:56:00,34.3,29.7,30.18,SSE,167,1.0,2.0,83,0.00,,,0.00,meteohub,2013-01-20 10:56:00,
2013-01-20 06:01:00,34.7,29.8,30.18,South,186,1.0,2.0,82,0.00,,,0.00,meteohub,2013-01-20 11:01:00,
2013-01-20 06:06:00,35.1,30.2,30.18,South,172,0.0,2.0,82,0.00,,,0.00,meteohub,2013-01-20 11:06:00,
2013-01-20 06:11:00,35.4,30.2,30.18,WSW,248,0.0,2.0,81,0.00,,,0.00,meteohub,2013-01-20 11:11:00,
2013-01-20 06:16:00,36.0,30.4,30.18,South,181,1.0,2.0,80,0.00,,,0.00,meteohub,2013-01-20 11:16:00,
2013-01-20 06:21:00,36.1,30.6,30.18,SSW,208,0.0,2.0,80,0.00,,,0.00,meteohub,2013-01-20 11:21:00,
2013-01-20 06:26:00,36.3,30.4,30.18,SSW,201,0.0,2.0,79,0.00,,,0.00,meteohub,2013-01-20 11:26:00,
2013-01-20 06:31:00,36.3,30.4,30.18,SSW,201,0.0,2.0,79,0.00,,,0.00,meteohub,2013-01-20 11:31:00,
2013-01-20 06:36:00,36.3,30.4,30.18,WSW,256,1.0,2.0,79,0.00,,,0.00,meteohub,2013-01-20 11:36:00,
2013-01-20 06:41:00,36.3,30.7,30.18,South,172,0.0,1.0,80,0.00,,,0.00,meteohub,2013-01-20 11:41:00,
2013-01-20 06:46:00,36.3,30.7,30.18,South,172,0.0,1.0,80,0.00,,,0.00,meteohub,2013-01-20 11:46:00,
2013-01-20 06:51:00,36.3,30.7,30.18,South,173,0.0,1.0,80,0.00,,,0.00,meteohub,2013-01-20 11:51:00,
2013-01-20 06:56:00,36.3,31.1,30.18,SSW,199,0.0,1.0,81,0.00,,,0.00,meteohub,2013-01-20 11:56:00,
2013-01-20 07:01:00,36.1,30.9,30.19,SSW,200,0.0,1.0,81,0.00,,,0.00,meteohub,2013-01-20 12:01:00,
2013-01-20 07:06:00,36.1,30.9,30.19,SW,225,2.0,2.0,81,0.00,,,0.00,meteohub,2013-01-20 12:06:00,
2013-01-20 07:11:00,36.3,31.3,30.19,South,176,2.0,2.0,82,0.00,,,0.00,meteohub,2013-01-20 12:11:00,
2013-01-20 07:16:00,36.3,31.1,30.19,South,181,0.0,2.0,81,0.00,,,0.00,meteohub,2013-01-20 12:16:00,
2013-01-20 07:21:00,36.3,31.3,30.19,SSW,211,0.0,2.0,82,0.00,,,0.00,meteohub,2013-01-20 12:21:00,
2013-01-20 07:26:00,36.3,31.3,30.19,South,169,1.0,2.0,82,0.00,,,0.00,meteohub,2013-01-20 12:26:00,
2013-01-20 07:32:00,36.5,31.3,30.19,SSW,192,0.0,2.0,81,0.00,,,0.00,meteohub,2013-01-20 12:32:00,
2013-01-20 07:36:00,36.5,31.3,30.19,SSW,197,0.0,2.0,81,0.00,,,0.00,meteohub,2013-01-20 12:36:00,
2013-01-20 07:42:00,36.5,31.3,30.19,SSW,197,0.0,2.0,81,0.00,,,0.00,meteohub,2013-01-20 12:42:00,
2013-01-20 07:47:00,36.3,31.1,30.19,SSW,197,0.0,1.0,81,0.00,,,0.00,meteohub,2013-01-20 12:47:00,
2013-01-20 07:52:00,36.3,31.1,30.19,SSW,198,0.0,1.0,81,0.00,,,0.00,meteohub,2013-01-20 12:52:00,
2013-01-20 07:57:00,36.5,30.9,30.19,SSW,201,0.0,1.0,80,0.00,,,0.00,meteohub,2013-01-20 12:57:00,
2013-01-20 08:02:00,36.7,30.7,30.19,SW,224,0.0,1.0,79,0.00,,,0.00,meteohub,2013-01-20 13:02:00,
2013-01-20 08:07:00,36.7,30.7,30.19,SW,224,0.0,1.0,79,0.00,,,0.00,meteohub,2013-01-20 13:07:00,
2013-01-20 08:12:00,36.7,30.7,30.19,SSW,211,0.0,1.0,79,0.00,,,0.00,meteohub,2013-01-20 13:12:00,
2013-01-20 08:17:00,36.9,30.9,30.19,SSW,211,0.0,1.0,79,0.00,,,0.00,meteohub,2013-01-20 13:17:00,
2013-01-20 08:22:00,37.0,31.1,30.19,SSW,194,0.0,2.0,79,0.00,,,0.00,meteohub,2013-01-20 13:22:00,
2013-01-20 08:27:00,37.2,30.9,30.19,SW,222,0.0,2.0,78,0.00,,,0.00,meteohub,2013-01-20 13:27:00,
2013-01-20 08:32:00,37.8,31.5,30.19,SSW,193,2.0,3.0,78,0.00,,,0.00,meteohub,2013-01-20 13:32:00,
2013-01-20 08:37:00,38.1,31.6,30.19,WSW,256,1.0,3.0,77,0.00,,,0.00,meteohub,2013-01-20 13:37:00,
2013-01-20 08:42:00,38.5,31.6,30.19,SSW,205,0.0,3.0,76,0.00,,,0.00,meteohub,2013-01-20 13:42:00,
2013-01-20 08:47:00,39.0,32.2,30.19,WSW,257,1.0,3.0,76,0.00,,,0.00,meteohub,2013-01-20 13:47:00,
2013-01-20 08:52:00,39.4,32.2,30.19,SW,228,0.0,3.0,75,0.00,,,0.00,meteohub,2013-01-20 13:52:00,
2013-01-20 08:57:00,39.7,32.2,30.19,South,189,0.0,6.0,74,0.00,,,0.00,meteohub,2013-01-20 13:57:00,
2013-01-20 09:02:00,39.9,32.4,30.19,SSE,167,0.0,6.0,74,0.00,,,0.00,meteohub,2013-01-20 14:02:00,
2013-01-20 09:07:00,40.5,32.9,30.19,SSW,212,0.0,5.0,74,0.00,,,0.00,meteohub,2013-01-20 14:07:00,
2013-01-20 09:12:00,40.8,32.9,30.19,West,268,1.0,3.0,73,0.00,,,0.00,meteohub,2013-01-20 14:12:00,
2013-01-20 09:17:00,41.2,32.9,30.19,SSW,205,1.0,5.0,72,0.00,,,0.00,meteohub,2013-01-20 14:17:00,
2013-01-20 09:22:00,41.5,33.3,30.19,SW,226,3.0,5.0,72,0.00,,,0.00,meteohub,2013-01-20 14:22:00,
2013-01-20 09:27:00,42.1,33.8,30.19,SSE,156,2.0,4.0,72,0.00,,,0.00,meteohub,2013-01-20 14:27:00,
2013-01-20 09:32:00,42.4,34.0,30.19,SSE,166,1.0,4.0,72,0.00,,,0.00,meteohub,2013-01-20 14:32:00,
2013-01-20 09:37:00,42.8,34.0,30.19,SSW,212,1.0,4.0,71,0.00,,,0.00,meteohub,2013-01-20 14:37:00,
2013-01-20 09:42:00,43.2,34.0,30.19,West,262,1.0,4.0,70,0.00,,,0.00,meteohub,2013-01-20 14:42:00,
2013-01-20 09:47:00,43.5,34.3,30.19,NW,322,0.0,4.0,70,0.00,,,0.00,meteohub,2013-01-20 14:47:00,
2013-01-20 09:52:00,44.1,34.2,30.19,West,278,1.0,2.0,68,0.00,,,0.00,meteohub,2013-01-20 14:52:00,
2013-01-20 09:57:00,44.4,34.5,30.19,West,263,0.0,4.0,68,0.00,,,0.00,meteohub,2013-01-20 14:57:00,
2013-01-20 10:02:00,45.0,35.1,30.19,SSW,208,1.0,4.0,68,0.00,,,0.00,meteohub,2013-01-20 15:02:00,
2013-01-20 10:07:00,45.3,35.1,30.19,NW,321,0.0,4.0,67,0.00,,,0.00,meteohub,2013-01-20 15:07:00,
2013-01-20 10:12:00,45.9,35.1,30.19,SSW,205,1.0,3.0,66,0.00,,,0.00,meteohub,2013-01-20 15:12:00,
2013-01-20 10:17:00,46.2,35.1,30.19,SSE,151,3.0,3.0,65,0.00,,,0.00,meteohub,2013-01-20 15:17:00,
2013-01-20 10:22:00,46.6,35.8,30.19,WNW,302,1.0,4.0,66,0.00,,,0.00,meteohub,2013-01-20 15:22:00,
2013-01-20 10:27:00,47.1,35.2,30.20,SW,217,2.0,4.0,63,0.00,,,0.00,meteohub,2013-01-20 15:27:00,
2013-01-20 10:32:00,47.5,36.0,30.19,SSE,166,1.0,4.0,64,0.00,,,0.00,meteohub,2013-01-20 15:32:00,
2013-01-20 10:37:00,47.8,35.8,30.19,WSW,248,0.0,4.0,63,0.00,,,0.00,meteohub,2013-01-20 15:37:00,
2013-01-20 10:42:00,48.4,36.0,30.20,South,177,1.0,5.0,62,0.00,,,0.00,meteohub,2013-01-20 15:42:00,
2013-01-20 10:47:00,48.7,36.0,30.20,West,261,1.0,5.0,61,0.00,,,0.00,meteohub,2013-01-20 15:47:00,
2013-01-20 10:52:00,49.3,36.9,30.19,South,184,0.0,5.0,62,0.00,,,0.00,meteohub,2013-01-20 15:52:00,
2013-01-20 10:57:00,49.6,36.7,30.19,SSE,162,2.0,4.0,61,0.00,,,0.00,meteohub,2013-01-20 15:57:00,
2013-01-20 11:02:00,50.0,35.8,30.19,WNW,295,1.0,4.0,58,0.00,,,0.00,meteohub,2013-01-20 16:02:00,
2013-01-20 11:07:00,50.4,36.1,30.19,NW,307,2.0,7.0,58,0.00,,,0.00,meteohub,2013-01-20 16:07:00,
2013-01-20 11:12:00,50.7,36.0,30.18,NNW,330,1.0,7.0,57,0.00,,,0.00,meteohub,2013-01-20 16:12:00,
2013-01-20 11:17:00,51.1,36.3,30.18,West,267,0.0,4.0,57,0.00,,,0.00,meteohub,2013-01-20 16:17:00,
2013-01-20 11:22:00,51.4,36.3,30.18,South,181,1.0,5.0,56,0.00,,,0.00,meteohub,2013-01-20 16:22:00,
2013-01-20 11:27:00,51.8,36.7,30.18,SW,225,1.0,5.0,56,0.00,,,0.00,meteohub,2013-01-20 16:27:00,
2013-01-20 11:32:00,52.0,36.3,30.18,SSW,206,2.0,6.0,55,0.00,,,0.00,meteohub,2013-01-20 16:32:00,
2013-01-20 11:37:00,52.2,36.5,30.17,SW,236,2.0,6.0,55,0.00,,,0.00,meteohub,2013-01-20 16:37:00,
2013-01-20 11:42:00,52.2,36.5,30.17,NW,319,0.0,6.0,55,0.00,,,0.00,meteohub,2013-01-20 16:42:00,
2013-01-20 11:47:00,52.5,36.9,30.17,South,190,1.0,5.0,55,0.00,,,0.00,meteohub,2013-01-20 16:47:00,
2013-01-20 11:52:00,52.9,36.7,30.17,SSE,153,1.0,5.0,54,0.00,,,0.00,meteohub,2013-01-20 16:52:00,
2013-01-20 11:57:00,53.1,37.8,30.17,WSW,258,1.0,6.0,56,0.00,,,0.00,meteohub,2013-01-20 16:57:00,
2013-01-20 12:02:00,53.6,37.4,30.16,South,172,2.0,6.0,54,0.00,,,0.00,meteohub,2013-01-20 17:02:00,
2013-01-20 12:07:00,54.0,37.8,30.16,SW,235,0.0,6.0,54,0.00,,,0.00,meteohub,2013-01-20 17:07:00,
2013-01-20 12:12:00,54.3,37.0,30.16,NNW,345,4.0,4.0,52,0.00,,,0.00,meteohub,2013-01-20 17:12:00,
2013-01-20 12:17:00,54.7,37.4,30.16,South,169,3.0,5.0,52,0.00,,,0.00,meteohub,2013-01-20 17:17:00,
2013-01-20 12:22:00,55.0,38.3,30.15,SW,228,2.0,5.0,53,0.00,,,0.00,meteohub,2013-01-20 17:22:00,
2013-01-20 12:27:00,55.8,38.5,30.14,SW,235,4.0,5.0,52,0.00,,,0.00,meteohub,2013-01-20 17:27:00,
2013-01-20 12:32:00,55.8,38.5,30.14,WSW,255,1.0,5.0,52,0.00,,,0.00,meteohub,2013-01-20 17:32:00,
2013-01-20 12:37:00,55.9,38.5,30.14,SW,215,1.0,5.0,52,0.00,,,0.00,meteohub,2013-01-20 17:37:00,
2013-01-20 12:42:00,56.1,38.3,30.14,West,280,3.0,5.0,51,0.00,,,0.00,meteohub,2013-01-20 17:42:00,
2013-01-20 12:47:00,56.1,37.8,30.13,South,177,1.0,5.0,50,0.00,,,0.00,meteohub,2013-01-20 17:47:00,
2013-01-20 12:52:00,56.7,38.3,30.13,SW,233,0.0,5.0,50,0.00,,,0.00,meteohub,2013-01-20 17:52:00,
2013-01-20 12:57:00,56.8,38.8,30.13,North,358,0.0,5.0,51,0.00,,,0.00,meteohub,2013-01-20 17:57:00,
2013-01-20 13:02:00,57.4,38.8,30.13,SSE,162,3.0,5.0,50,0.00,,,0.00,meteohub,2013-01-20 18:02:00,
2013-01-20 13:07:00,57.6,39.0,30.13,South,180,2.0,5.0,50,0.00,,,0.00,meteohub,2013-01-20 18:07:00,
2013-01-20 13:12:00,57.6,38.5,30.12,WSW,245,0.0,4.0,49,0.00,,,0.00,meteohub,2013-01-20 18:12:00,
2013-01-20 13:17:00,57.9,39.4,30.12,SSW,207,1.0,4.0,50,0.00,,,0.00,meteohub,2013-01-20 18:17:00,
2013-01-20 13:22:00,58.5,38.8,30.12,SSE,162,2.0,3.0,48,0.00,,,0.00,meteohub,2013-01-20 18:22:00,
2013-01-20 13:27:00,58.6,39.6,30.12,South,191,2.0,4.0,49,0.00,,,0.00,meteohub,2013-01-20 18:27:00,
2013-01-20 13:32:00,58.8,39.7,30.11,NNW,341,1.0,4.0,49,0.00,,,0.00,meteohub,2013-01-20 18:32:00,
2013-01-20 13:37:00,59.2,40.1,30.11,SW,221,1.0,4.0,49,0.00,,,0.00,meteohub,2013-01-20 18:37:00,
2013-01-20 13:42:00,59.4,39.7,30.11,SSE,152,1.0,3.0,48,0.00,,,0.00,meteohub,2013-01-20 18:42:00,
2013-01-20 13:47:00,59.9,40.1,30.11,South,183,0.0,4.0,48,0.00,,,0.00,meteohub,2013-01-20 18:47:00,
2013-01-20 13:52:00,60.3,39.9,30.10,WSW,252,0.0,4.0,47,0.00,,,0.00,meteohub,2013-01-20 18:52:00,
2013-01-20 13:57:00,60.6,40.3,30.10,SSW,203,5.0,5.0,47,0.00,,,0.00,meteohub,2013-01-20 18:57:00,
2013-01-20 14:02:00,60.6,39.7,30.10,NNW,328,2.0,5.0,46,0.00,,,0.00,meteohub,2013-01-20 19:02:00,
2013-01-20 14:07:00,60.6,39.2,30.09,WSW,255,2.0,5.0,45,0.00,,,0.00,meteohub,2013-01-20 19:07:00,
2013-01-20 14:12:00,60.6,39.2,30.09,WSW,238,1.0,5.0,45,0.00,,,0.00,meteohub,2013-01-20 19:12:00,
2013-01-20 14:17:00,61.0,38.8,30.09,NW,312,2.0,5.0,44,0.00,,,0.00,meteohub,2013-01-20 19:17:00,
2013-01-20 14:22:00,61.2,38.5,30.09,WNW,285,2.0,7.0,43,0.00,,,0.00,meteohub,2013-01-20 19:22:00,
2013-01-20 14:27:00,61.3,38.7,30.09,South,181,1.0,8.0,43,0.00,,,0.00,meteohub,2013-01-20 19:27:00,
2013-01-20 14:32:00,61.5,38.8,30.09,South,191,1.0,8.0,43,0.00,,,0.00,meteohub,2013-01-20 19:32:00,
2013-01-20 14:37:00,61.7,39.0,30.08,SSW,209,4.0,6.0,43,0.00,,,0.00,meteohub,2013-01-20 19:37:00,
2013-01-20 14:42:00,61.7,39.6,30.08,SSE,166,5.0,7.0,44,0.00,,,0.00,meteohub,2013-01-20 19:42:00,
2013-01-20 14:47:00,61.7,39.0,30.08,SW,225,2.0,7.0,43,0.00,,,0.00,meteohub,2013-01-20 19:47:00,
2013-01-20 14:52:00,61.9,39.2,30.08,SSW,204,2.0,7.0,43,0.00,,,0.00,meteohub,2013-01-20 19:52:00,
2013-01-20 14:57:00,61.5,39.4,30.08,South,179,3.0,6.0,44,0.00,,,0.00,meteohub,2013-01-20 19:57:00,
2013-01-20 15:02:00,61.3,38.7,30.08,NNW,333,1.0,6.0,43,0.00,,,0.00,meteohub,2013-01-20 20:02:00,
2013-01-20 15:07:00,61.5,39.9,30.08,SSE,167,4.0,5.0,45,0.00,,,0.00,meteohub,2013-01-20 20:07:00,
2013-01-20 15:12:00,61.7,38.3,30.08,West,273,1.0,5.0,42,0.00,,,0.00,meteohub,2013-01-20 20:12:00,
2013-01-20 15:18:00,61.9,36.0,30.08,SW,215,4.0,12.0,38,0.00,,,0.00,meteohub,2013-01-20 20:18:00,
2013-01-20 15:23:00,62.1,36.1,30.08,West,266,1.0,12.0,38,0.00,,,0.00,meteohub,2013-01-20 20:23:00,
2013-01-20 15:28:00,62.1,35.4,30.08,South,187,2.0,12.0,37,0.00,,,0.00,meteohub,2013-01-20 20:28:00,
2013-01-20 15:33:00,62.1,32.5,30.08,South,187,5.0,7.0,33,0.00,,,0.00,meteohub,2013-01-20 20:33:00,
2013-01-20 15:38:00,61.9,35.2,30.08,SW,217,2.0,7.0,37,0.00,,,0.00,meteohub,2013-01-20 20:38:00,
2013-01-20 15:43:00,61.9,34.0,30.08,WSW,248,2.0,7.0,35,0.00,,,0.00,meteohub,2013-01-20 20:43:00,
2013-01-20 15:48:00,61.7,31.5,30.08,SSE,150,6.0,7.0,32,0.00,,,0.00,meteohub,2013-01-20 20:48:00,
2013-01-20 15:53:00,61.5,33.6,30.08,SSW,200,0.0,8.0,35,0.00,,,0.00,meteohub,2013-01-20 20:53:00,
2013-01-20 15:58:00,61.5,32.2,30.08,SW,233,2.0,8.0,33,0.00,,,0.00,meteohub,2013-01-20 20:58:00,
2013-01-20 16:03:00,61.5,36.3,30.08,North,359,2.0,7.0,39,0.00,,,0.00,meteohub,2013-01-20 21:03:00,
2013-01-20 16:08:00,61.5,32.9,30.08,WSW,248,2.0,7.0,34,0.00,,,0.00,meteohub,2013-01-20 21:08:00,
2013-01-20 16:13:00,61.3,32.0,30.08,South,170,3.0,7.0,33,0.00,,,0.00,meteohub,2013-01-20 21:13:00,
2013-01-20 16:18:00,61.3,35.6,30.08,South,173,2.0,6.0,38,0.00,,,0.00,meteohub,2013-01-20 21:18:00,
2013-01-20 16:23:00,61.2,36.7,30.08,SSE,167,3.0,6.0,40,0.00,,,0.00,meteohub,2013-01-20 21:23:00,
2013-01-20 16:28:00,61.0,36.5,30.08,WNW,301,1.0,6.0,40,0.00,,,0.00,meteohub,2013-01-20 21:28:00,
2013-01-20 16:33:00,61.0,35.8,30.08,SSW,198,1.0,5.0,39,0.00,,,0.00,meteohub,2013-01-20 21:33:00,
2013-01-20 16:38:00,61.0,35.2,30.08,SSE,158,2.0,7.0,38,0.00,,,0.00,meteohub,2013-01-20 21:38:00,
2013-01-20 16:43:00,61.0,35.8,30.08,SW,232,0.0,7.0,39,0.00,,,0.00,meteohub,2013-01-20 21:43:00,
2013-01-20 16:48:00,60.6,36.9,30.08,South,181,2.0,7.0,41,0.00,,,0.00,meteohub,2013-01-20 21:48:00,
2013-01-20 16:53:00,60.4,36.0,30.08,SE,125,4.0,5.0,40,0.00,,,0.00,meteohub,2013-01-20 21:53:00,
2013-01-20 16:58:00,60.3,35.8,30.08,NNW,328,2.0,5.0,40,0.00,,,0.00,meteohub,2013-01-20 21:58:00,
2013-01-20 17:03:00,60.1,36.3,30.08,SW,231,3.0,5.0,41,0.00,,,0.00,meteohub,2013-01-20 22:03:00,
2013-01-20 17:08:00,59.7,36.5,30.09,SSW,194,4.0,5.0,42,0.00,,,0.00,meteohub,2013-01-20 22:08:00,
2013-01-20 17:13:00,59.4,36.9,30.08,South,191,2.0,6.0,43,0.00,,,0.00,meteohub,2013-01-20 22:13:00,
2013-01-20 17:18:00,59.2,36.7,30.09,SSE,158,3.0,6.0,43,0.00,,,0.00,meteohub,2013-01-20 22:18:00,
2013-01-20 17:23:00,58.8,36.3,30.08,ESE,115,1.0,6.0,43,0.00,,,0.00,meteohub,2013-01-20 22:23:00,
2013-01-20 17:28:00,58.6,36.1,30.08,SW,215,1.0,6.0,43,0.00,,,0.00,meteohub,2013-01-20 22:28:00,
2013-01-20 17:33:00,58.5,36.7,30.08,WNW,292,2.0,6.0,44,0.00,,,0.00,meteohub,2013-01-20 22:33:00,
2013-01-20 17:38:00,58.1,35.8,30.08,WSW,241,0.0,5.0,43,0.00,,,0.00,meteohub,2013-01-20 22:38:00,
2013-01-20 17:43:00,57.6,35.8,30.08,SE,146,1.0,3.0,44,0.00,,,0.00,meteohub,2013-01-20 22:43:00,
2013-01-20 17:48:00,57.2,34.9,30.09,WNW,284,1.0,4.0,43,0.00,,,0.00,meteohub,2013-01-20 22:48:00,
2013-01-20 17:53:00,56.7,35.1,30.09,SW,235,1.0,4.0,44,0.00,,,0.00,meteohub,2013-01-20 22:53:00,
2013-01-20 17:58:00,56.3,35.2,30.09,WSW,256,0.0,4.0,45,0.00,,,0.00,meteohub,2013-01-20 22:58:00,
2013-01-20 18:03:00,55.8,34.7,30.09,SSE,148,2.0,4.0,45,0.00,,,0.00,meteohub,2013-01-20 23:03:00,
2013-01-20 18:08:00,55.4,34.9,30.09,SE,145,2.0,5.0,46,0.00,,,0.00,meteohub,2013-01-20 23:08:00,
2013-01-20 18:13:00,55.0,35.2,30.09,SW,221,0.0,5.0,47,0.00,,,0.00,meteohub,2013-01-20 23:13:00,
2013-01-20 18:18:00,54.9,35.1,30.09,SW,226,0.0,5.0,47,0.00,,,0.00,meteohub,2013-01-20 23:18:00,
2013-01-20 18:23:00,54.3,35.1,30.09,WNW,288,1.0,4.0,48,0.00,,,0.00,meteohub,2013-01-20 23:23:00,
2013-01-20 18:28:00,54.1,35.4,30.09,SE,128,0.0,4.0,49,0.00,,,0.00,meteohub,2013-01-20 23:28:00,
2013-01-20 18:33:00,53.8,35.6,30.09,SE,131,0.0,4.0,50,0.00,,,0.00,meteohub,2013-01-20 23:33:00,
2013-01-20 18:38:00,53.2,35.1,30.09,South,174,1.0,2.0,50,0.00,,,0.00,meteohub,2013-01-20 23:38:00,
2013-01-20 18:43:00,53.1,35.4,30.09,WSW,242,0.0,1.0,51,0.00,,,0.00,meteohub,2013-01-20 23:43:00,
2013-01-20 18:48:00,52.7,35.1,30.10,SW,225,0.0,2.0,51,0.00,,,0.00,meteohub,2013-01-20 23:48:00,
2013-01-20 18:53:00,52.3,35.2,30.10,SW,235,0.0,2.0,52,0.00,,,0.00,meteohub,2013-01-20 23:53:00,
2013-01-20 18:58:00,52.0,35.4,30.09,SW,233,1.0,2.0,53,0.00,,,0.00,meteohub,2013-01-20 23:58:00,
2013-01-20 19:03:00,51.8,35.2,30.09,South,179,1.0,1.0,53,0.00,,,0.00,meteohub,2013-01-21 00:03:00,
2013-01-20 19:08:00,51.6,35.6,30.10,South,181,0.0,2.0,54,0.00,,,0.00,meteohub,2013-01-21 00:08:00,
2013-01-20 19:13:00,51.3,35.2,30.10,SW,215,0.0,2.0,54,0.00,,,0.00,meteohub,2013-01-21 00:13:00,
2013-01-20 19:19:00,51.3,35.2,30.10,WSW,258,0.0,2.0,54,0.00,,,0.00,meteohub,2013-01-21 00:19:00,
2013-01-20 19:24:00,51.1,35.4,30.10,NW,311,0.0,3.0,55,0.00,,,0.00,meteohub,2013-01-21 00:24:00,
2013-01-20 19:29:00,50.7,35.1,30.10,WNW,290,0.0,3.0,55,0.00,,,0.00,meteohub,2013-01-21 00:29:00,
2013-01-20 19:34:00,50.5,35.1,30.10,SW,221,1.0,2.0,55,0.00,,,0.00,meteohub,2013-01-21 00:34:00,
2013-01-20 19:39:00,50.4,35.2,30.10,SW,235,1.0,1.0,56,0.00,,,0.00,meteohub,2013-01-21 00:39:00,
2013-01-20 19:44:00,50.2,35.1,30.10,WSW,250,0.0,1.0,56,0.00,,,0.00,meteohub,2013-01-21 00:44:00,
2013-01-20 19:49:00,49.8,35.2,30.10,WSW,250,0.0,1.0,57,0.00,,,0.00,meteohub,2013-01-21 00:49:00,
2013-01-20 19:54:00,49.6,35.1,30.10,SSW,198,1.0,1.0,57,0.00,,,0.00,meteohub,2013-01-21 00:54:00,
2013-01-20 19:59:00,49.6,35.1,30.11,SSW,202,0.0,1.0,57,0.00,,,0.00,meteohub,2013-01-21 00:59:00,
2013-01-20 20:04:00,49.3,35.1,30.11,SSW,201,0.0,1.0,58,0.00,,,0.00,meteohub,2013-01-21 01:04:00,
2013-01-20 20:09:00,49.1,34.9,30.10,SSW,200,0.0,1.0,58,0.00,,,0.00,meteohub,2013-01-21 01:09:00,
2013-01-20 20:14:00,48.7,35.1,30.11,SSW,200,0.0,1.0,59,0.00,,,0.00,meteohub,2013-01-21 01:14:00,
2013-01-20 20:19:00,48.6,34.9,30.11,SSW,200,0.0,1.0,59,0.00,,,0.00,meteohub,2013-01-21 01:19:00,
2013-01-20 20:24:00,48.4,34.7,30.11,SSW,200,0.0,1.0,59,0.00,,,0.00,meteohub,2013-01-21 01:24:00,
2013-01-20 20:29:00,48.0,34.9,30.11,SSW,200,0.0,0.0,60,0.00,,,0.00,meteohub,2013-01-21 01:29:00,
2013-01-20 20:34:00,48.0,34.9,30.11,SSW,200,0.0,1.0,60,0.00,,,0.00,meteohub,2013-01-21 01:34:00,
2013-01-20 20:39:00,47.8,34.7,30.11,SSW,200,0.0,1.0,60,0.00,,,0.00,meteohub,2013-01-21 01:39:00,
2013-01-20 20:44:00,47.5,34.3,30.12,SSW,200,0.0,1.0,60,0.00,,,0.00,meteohub,2013-01-21 01:44:00,
2013-01-20 20:49:00,47.1,34.3,30.12,SSW,200,0.0,0.0,61,0.00,,,0.00,meteohub,2013-01-21 01:49:00,
2013-01-20 20:54:00,46.8,34.5,30.12,SSW,200,0.0,0.0,62,0.00,,,0.00,meteohub,2013-01-21 01:54:00,
2013-01-20 20:59:00,46.6,34.7,30.12,SSW,200,0.0,0.0,63,0.00,,,0.00,meteohub,2013-01-21 01:59:00,
2013-01-20 21:04:00,46.4,34.5,30.11,SSW,200,0.0,0.0,63,0.00,,,0.00,meteohub,2013-01-21 02:04:00,
2013-01-20 21:09:00,46.6,34.7,30.11,SSW,200,0.0,0.0,63,0.00,,,0.00,meteohub,2013-01-21 02:09:00,
2013-01-20 21:14:00,46.2,34.3,30.11,SSW,200,0.0,0.0,63,0.00,,,0.00,meteohub,2013-01-21 02:14:00,
2013-01-20 21:19:00,46.0,34.5,30.11,SSW,200,0.0,0.0,64,0.00,,,0.00,meteohub,2013-01-21 02:19:00,
2013-01-20 21:24:00,45.7,34.2,30.11,SSW,200,0.0,0.0,64,0.00,,,0.00,meteohub,2013-01-21 02:24:00,
2013-01-20 21:29:00,45.5,34.3,30.11,SSW,200,0.0,0.0,65,0.00,,,0.00,meteohub,2013-01-21 02:29:00,
2013-01-20 21:34:00,45.3,34.3,30.11,SSW,200,0.0,0.0,65,0.00,,,0.00,meteohub,2013-01-21 02:34:00,
2013-01-20 21:39:00,45.1,34.2,30.11,SSW,200,0.0,0.0,65,0.00,,,0.00,meteohub,2013-01-21 02:39:00,
2013-01-20 21:44:00,45.1,34.5,30.11,SSW,200,0.0,0.0,66,0.00,,,0.00,meteohub,2013-01-21 02:44:00,
2013-01-20 21:49:00,45.1,34.2,30.11,SSW,200,0.0,0.0,65,0.00,,,0.00,meteohub,2013-01-21 02:49:00,
2013-01-20 21:54:00,45.1,34.2,30.11,SSW,200,0.0,0.0,65,0.00,,,0.00,meteohub,2013-01-21 02:54:00,
2013-01-20 21:59:00,45.1,34.2,30.11,SSW,200,0.0,0.0,65,0.00,,,0.00,meteohub,2013-01-21 02:59:00,
2013-01-20 22:04:00,45.0,34.3,30.11,SSW,200,0.0,0.0,66,0.00,,,0.00,meteohub,2013-01-21 03:04:00,
2013-01-20 22:09:00,44.8,34.2,30.11,SSW,200,0.0,0.0,66,0.00,,,0.00,meteohub,2013-01-21 03:09:00,
2013-01-20 22:14:00,44.6,34.3,30.11,SSW,200,0.0,0.0,67,0.00,,,0.00,meteohub,2013-01-21 03:14:00,
2013-01-20 22:19:00,44.2,34.0,30.11,SSW,200,0.0,0.0,67,0.00,,,0.00,meteohub,2013-01-21 03:19:00,
2013-01-20 22:24:00,44.1,34.2,30.11,SSW,200,0.0,0.0,68,0.00,,,0.00,meteohub,2013-01-21 03:24:00,
2013-01-20 22:29:00,43.5,34.0,30.11,SSW,200,0.0,0.0,69,0.00,,,0.00,meteohub,2013-01-21 03:29:00,
2013-01-20 22:34:00,43.2,34.0,30.11,SSW,200,0.0,0.0,70,0.00,,,0.00,meteohub,2013-01-21 03:34:00,
2013-01-20 22:39:00,42.8,33.6,30.11,SSW,200,0.0,0.0,70,0.00,,,0.00,meteohub,2013-01-21 03:39:00,
2013-01-20 22:45:00,43.0,33.8,30.11,SSW,200,0.0,0.0,70,0.00,,,0.00,meteohub,2013-01-21 03:45:00,
2013-01-20 22:50:00,43.0,33.8,30.11,SSW,200,0.0,0.0,70,0.00,,,0.00,meteohub,2013-01-21 03:50:00,
2013-01-20 22:55:00,43.0,34.2,30.11,SSW,200,0.0,0.0,71,0.00,,,0.00,meteohub,2013-01-21 03:55:00,
2013-01-20 23:00:00,43.0,34.2,30.11,SSW,200,0.0,0.0,71,0.00,,,0.00,meteohub,2013-01-21 04:00:00,
2013-01-20 23:05:00,43.0,34.2,30.11,SSW,200,0.0,0.0,71,0.00,,,0.00,meteohub,2013-01-21 04:05:00,
2013-01-20 23:10:00,43.2,34.3,30.11,SSW,201,0.0,0.0,71,0.00,,,0.00,meteohub,2013-01-21 04:10:00,
2013-01-20 23:15:00,43.3,34.2,30.10,SSW,201,0.0,0.0,70,0.00,,,0.00,meteohub,2013-01-21 04:15:00,
2013-01-20 23:20:00,43.3,34.2,30.10,SSW,201,0.0,0.0,70,0.00,,,0.00,meteohub,2013-01-21 04:20:00,
2013-01-20 23:25:00,43.2,34.0,30.10,SSW,201,0.0,0.0,70,0.00,,,0.00,meteohub,2013-01-21 04:25:00,
2013-01-20 23:30:00,43.2,34.0,30.10,SSW,201,0.0,0.0,70,0.00,,,0.00,meteohub,2013-01-21 04:30:00,
2013-01-20 23:35:00,42.8,34.0,30.10,SSW,201,0.0,0.0,71,0.00,,,0.00,meteohub,2013-01-21 04:35:00,
2013-01-20 23:40:00,42.4,34.0,30.10,SSW,201,0.0,0.0,72,0.00,,,0.00,meteohub,2013-01-21 04:40:00,
2013-01-20 23:45:00,42.1,34.0,30.10,SSW,201,0.0,0.0,73,0.00,,,0.00,meteohub,2013-01-21 04:45:00,
2013-01-20 23:50:00,41.9,34.2,30.10,SSW,201,0.0,0.0,74,0.00,,,0.00,meteohub,2013-01-21 04:50:00,
2013-01-20 23:55:00,41.5,34.2,30.10,SSW,201,0.0,0.0,75,0.00,,,0.00,meteohub,2013-01-21 04:55:00,